Weather in Yamki

Russia / Khanty-Mansi Autonomous Okrug — Yugra     59°31′17″N   66°15′58″E
temp.,
°C
wind,
m/s
gust,
m/s
humid.,
%
clouds,
%
prec.,
mm/h
press.,
hPa
HPBL,
m
8 august, mon
mon823:00+19ne226489 0.0 101812
02:00+17ne117215 0.0 101911
05:00+16nw117544 0.0 101911
08:00+22n126024 0.0 1020227
11:00+27n114453 0.0 10191021
14:00+29nne113885 0.0 10181702
17:00+29n12385 0.0 10171966
20:00+23wsw22605 0.0 101712
9 august, tue
tue923:00+20w23642 0.0 101838
02:00+19w22710 0.0 101817
05:00+17w22760 0.0 101815
08:00+23wnw24621 0.0 1018236
11:00+28wnw23463 0.0 10171064
14:00+31nw23366 0.0 10162776
17:00+22w61274100 0.2 1016287
20:00+20wnw238359 1.4 101757
10 august, wed
wed1023:00+18n3109256 3.7 1017183
02:00+16n388922 0.6 1018146
05:00+15nne389536 0.6 1018165
08:00+19ne47765 0.0 1019390
11:00+24ne454783 0.0 10201167
14:00+25ne45339 0.0 10201708
17:00+25ne34346 0.0 10191741
20:00+19ene23569 0.0 102046
11 august, thu
thu1123:00+16e38605 0.0 1020133
02:00+14sse376665 0.0 1019116
05:00+13sse37697 0.0 1019126
08:00+18sse485749 0.0 1019327
11:00+23sse684085 0.0 10171210
14:00+25s673446 0.0 10151432
17:00+25s474032 0.0 10131424
20:00+20sse41160100 0.0 1011323
12 august, fri
fri1223:00+17ssw51391100 0.3 1011495
02:00+16s41096100 0.1 1009403
05:00+16s2598100 0.1 1008197
08:00+18ssw348662 0.0 1007508
11:00+18wsw4581100 0.1 1007693
14:00+18wsw3470100 0.0 1006952
17:00+17w3580100 0.1 1006648
20:00+16wnw379190 0.2 1005425